FENGYUN 1C DEB, 31239

Orbit data source: Space-Track

FENGYUN 1C DEB, 31239 is space debris in SSO originally from a launch on Mon, 10 May 1999 UTC launched from the Taiyaun Space Center, China (TSC). Fengyun 1C debris stems from the Chinese weather satellite Fengyun-1C, which was intentionally destroyed by a Chinese anti-satellite missile in 2007. This event dramatically increased the amount of space debris, with thousands of trackable fragments posing hazards to satellites and human spaceflight. The Fengyun 1C debris cloud has become a focal point in discussions about space sustainability and the need for international regulations to prevent the creation of new debris.

Loading next visibility...
Identifier
31239, 1999-025BLV
Orbit
SSO
Country
Flag of CNCN / PRC
Related business
Manufacturer
Unknown
Mission
Spacecraft
Bus & Motor
Unknown
Mass
Unknown
Launch date (UTC)
1999-05-10 (27 years ago)
Launch vehicle
Unknown
Launch site
Taiyaun Space Center, China (TSC)
Object type
Payload
Rocket body
Debris
Shape & HBR
Unknown shape, 0.1 m
Radar Cross Section
Small (<0.1 m²)

Expand to show TLE details & history
Last TLE update: 9 hours ago

TLE from 9 hours ago
0 FENGYUN 1C DEB
1 31239U 99025BLV 26062.67419806  .00000766  00000-0  45396-3 0  9999
2 31239  98.7646  60.4813 0049154 331.2315  88.3633 14.09989357971523
Epoch: 2026-03-03T16:10Z
TLE epoch observation values (Epoch: 2026-03-03T16:10:50.712Z)
Latitude
59.10869°
Longitude
1.46712°
Altitude
868.542 km
Speed
7.424 km/s
True Right ascension
03h 02m 30s
True Declination
58° 57' 33"
Sunlit
Object was in daylight at epoch
Visualization orbit readout
Latitude
Unknown
Longitude
Unknown
Altitude
Unknown
Speed
Unknown
Apparent Right ascension
Unknown
Apparent Declination
Unknown
Sunlit
N/A
Visualization observer readout
Local Sidereal Time
04:47:21
Azimuth
Unknown
Elevation
Unknown
Doppler factor
Unknown
Orbital elements
Apogee altitude
892.144 km
Perigee altitude
821.021 km
Semi-major axis
7,234.72 km
Eccentricity
0.00492
Inclination
98.7646°
RAAN
60.4813°
Arg. of periapsis
331.2315°
True anomaly
88.92642°
Mean anomaly
88.3633°
Eccentric anomaly
88.64485°
Mean motion
3.52704 °/min
Orbital period
102.07 mins
BSTAR
0.00045396
Loading maneuver chart data...
Computing Atmospheric mass density...
Loading historical data...
Loading historical data...
Loading historical data...
Loading historical data...
Loading historical data...
Loading historical data...
Loading historical data...

Documentation

Showing up to 5 results
|